"read_dt","SO2 (ppb)","flags","PMT voltage (V)","lamp voltage (V)","lamp intensity (Hz)","internal temp (C)","react chamber temp (C)","sample flow (l/min)","pres (mmHg)","SO2 bkg (ppb)","SO2 coefficient"
2015-08-29 00:00:00,2247E-3,5C000400,-0724,0820,12239,028.8,045.5,0.255,751.0,01.17,0.508
2015-08-29 00:01:00,2204E-3,5C000400,-0724,0822,12281,028.8,045.5,0.255,750.9,01.17,0.508
2015-08-29 00:02:00,2242E-3,5C000400,-0724,0820,12145,028.8,045.5,0.255,751.0,01.17,0.508
2015-08-29 00:03:00,2293E-3,5C000400,-0724,0820,12429,028.8,045.5,0.255,750.8,01.17,0.508
2015-08-29 00:04:00,2182E-3,5C000400,-0724,0820,12230,028.8,045.5,0.255,750.8,01.17,0.508
2015-08-29 00:05:00,2052E-3,5C000400,-0724,0819,12307,028.8,045.5,0.255,751.0,01.17,0.508
2015-08-29 00:06:00,2196E-3,5C000400,-0724,0819,12312,028.8,045.5,0.255,750.9,01.17,0.508
2015-08-29 00:07:00,2157E-3,5C000400,-0724,0820,12241,028.8,045.5,0.255,750.8,01.17,0.508
2015-08-29 00:08:00,2359E-3,5C000400,-0724,0819,12309,028.8,045.5,0.255,750.9,01.17,0.508
2015-08-29 00:09:00,2160E-3,5C000400,-0724,0820,12363,028.9,045.5,0.255,750.7,01.17,0.508
2015-08-29 00:10:00,2295E-3,5C000400,-0724,0821,12294,028.8,045.5,0.255,750.7,01.17,0.508
2015-08-29 00:11:00,2330E-3,5C000400,-0724,0819,12295,028.9,045.5,0.255,750.9,01.17,0.508
2015-08-29 00:12:00,2206E-3,5C000400,-0724,0820,12334,028.9,045.5,0.255,750.8,01.17,0.508
2015-08-29 00:13:00,2317E-3,5C000400,-0724,0819,12068,028.9,045.5,0.255,750.7,01.17,0.508
2015-08-29 00:14:00,2185E-3,5C000400,-0724,0819,12467,028.9,045.5,0.254,750.8,01.17,0.508
2015-08-29 00:15:00,2164E-3,5C000400,-0724,0819,12258,028.9,045.5,0.255,750.9,01.17,0.508
2015-08-29 00:16:00,2332E-3,5C000400,-0724,0820,12303,028.9,045.5,0.254,750.9,01.17,0.508
2015-08-29 00:17:00,2198E-3,5C000400,-0724,0819,12248,028.9,045.5,0.255,750.9,01.17,0.508
2015-08-29 00:18:00,2166E-3,5C000400,-0724,0820,12337,028.9,045.5,0.255,750.8,01.17,0.508
2015-08-29 00:19:00,2268E-3,5C000400,-0724,0819,12365,028.9,045.5,0.255,750.8,01.17,0.508
2015-08-29 00:20:00,2336E-3,5C000400,-0724,0820,12385,028.9,045.5,0.255,750.8,01.17,0.508
2015-08-29 00:21:00,2327E-3,5C000400,-0724,0819,12428,028.9,045.5,0.255,750.9,01.17,0.508
2015-08-29 00:22:00,2084E-3,5C000400,-0724,0820,12259,028.9,045.5,0.255,750.8,01.17,0.508
2015-08-29 00:23:00,2191E-3,5C000400,-0724,0820,12356,028.9,045.5,0.255,750.8,01.17,0.508
2015-08-29 00:24:00,2209E-3,5C000400,-0724,0820,12085,029.0,045.5,0.255,750.7,01.17,0.508
2015-08-29 00:25:00,2226E-3,5C000400,-0724,0819,12348,028.9,045.5,0.255,750.7,01.17,0.508
2015-08-29 00:26:00,2282E-3,5C000400,-0724,0819,12192,029.0,045.5,0.255,750.7,01.17,0.508
2015-08-29 00:27:00,2194E-3,5C000400,-0724,0819,12327,029.0,045.5,0.255,750.8,01.17,0.508
2015-08-29 00:28:00,2156E-3,5C000400,-0724,0820,12272,029.0,045.5,0.255,750.7,01.17,0.508
2015-08-29 00:29:00,2297E-3,5C000400,-0724,0820,12257,029.0,045.5,0.255,750.7,01.17,0.508
2015-08-29 00:30:00,2160E-3,5C000400,-0724,0820,12046,029.0,045.5,0.255,750.7,01.17,0.508
2015-08-29 00:31:00,2320E-3,5C000400,-0724,0820,12446,029.0,045.5,0.254,750.7,01.17,0.508
2015-08-29 00:32:00,2247E-3,5C000400,-0724,0820,12456,029.0,045.5,0.255,750.9,01.17,0.508
2015-08-29 00:33:00,2369E-3,5C000400,-0724,0820,12259,029.0,045.5,0.254,750.8,01.17,0.508
2015-08-29 00:34:00,2190E-3,5C000400,-0724,0819,12316,029.0,045.5,0.255,750.8,01.17,0.508
2015-08-29 00:35:00,2148E-3,5C000400,-0724,0820,12342,029.0,045.5,0.254,750.8,01.17,0.508
2015-08-29 00:36:00,2204E-3,5C000400,-0724,0820,12318,029.0,045.5,0.255,750.7,01.17,0.508
2015-08-29 00:37:00,2275E-3,5C000400,-0724,0819,12297,029.0,045.5,0.254,750.7,01.17,0.508
2015-08-29 00:38:00,2143E-3,5C000400,-0724,0820,12335,029.0,045.5,0.255,750.7,01.17,0.508
2015-08-29 00:39:00,2068E-3,5C000400,-0724,0820,12315,029.0,045.5,0.254,750.7,01.17,0.508
2015-08-29 00:40:00,2225E-3,5C000400,-0724,0820,12284,029.0,045.5,0.255,750.6,01.17,0.508
2015-08-29 00:41:00,2136E-3,5C000400,-0724,0820,12477,029.0,045.5,0.255,750.7,01.17,0.508
2015-08-29 00:42:00,2244E-3,5C000400,-0724,0820,12178,029.1,045.5,0.255,750.8,01.17,0.508
2015-08-29 00:43:00,2258E-3,5C000400,-0724,0820,12389,029.1,045.5,0.254,750.7,01.17,0.508
2015-08-29 00:44:00,2129E-3,5C000400,-0724,0819,12352,029.1,045.5,0.255,750.6,01.17,0.508
2015-08-29 00:45:00,2277E-3,5C000400,-0724,0820,12308,029.1,045.5,0.255,750.5,01.17,0.508
2015-08-29 00:46:00,2201E-3,5C000400,-0724,0819,12288,029.1,045.5,0.254,750.7,01.17,0.508
2015-08-29 00:47:00,2326E-3,5C000400,-0724,0818,12293,029.1,045.5,0.255,750.6,01.17,0.508
2015-08-29 00:48:00,2161E-3,5C000400,-0724,0819,12287,029.1,045.5,0.254,750.5,01.17,0.508
2015-08-29 00:49:00,2113E-3,5C000400,-0724,0820,12421,029.1,045.5,0.255,750.7,01.17,0.508
2015-08-29 00:50:00,2135E-3,5C000400,-0724,0819,12263,029.1,045.5,0.254,750.4,01.17,0.508
2015-08-29 00:51:00,2340E-3,5C000400,-0724,0819,12390,029.1,045.5,0.255,750.7,01.17,0.508
2015-08-29 00:52:00,2213E-3,5C000400,-0724,0819,12272,029.1,045.5,0.254,750.7,01.17,0.508
2015-08-29 00:53:00,2028E-3,5C000400,-0724,0820,12362,029.1,045.5,0.255,750.5,01.17,0.508
2015-08-29 00:54:00,2221E-3,5C000400,-0724,0820,12132,029.1,045.5,0.254,750.5,01.17,0.508
2015-08-29 00:55:00,2181E-3,5C000400,-0724,0820,12312,029.1,045.5,0.254,750.5,01.17,0.508
2015-08-29 00:56:00,2166E-3,5C000400,-0724,0819,12053,029.1,045.5,0.254,750.6,01.17,0.508
2015-08-29 00:57:00,2372E-3,5C000400,-0724,0818,12169,029.1,045.5,0.254,750.6,01.17,0.508
2015-08-29 00:58:00,2073E-3,5C000400,-0724,0818,12188,029.1,045.5,0.254,750.7,01.17,0.508
2015-08-29 00:59:00,2194E-3,5C000400,-0724,0818,12308,029.1,045.5,0.254,750.6,01.17,0.508
2015-08-29 01:00:00,2081E-3,5C000400,-0724,0818,12176,029.1,045.5,0.254,750.7,01.17,0.508
2015-08-29 01:01:00,2236E-3,5C000400,-0724,0819,12288,029.1,045.5,0.254,750.7,01.17,0.508
2015-08-29 01:02:00,2193E-3,5C000400,-0724,0819,12363,029.2,045.5,0.254,750.7,01.17,0.508
2015-08-29 01:03:00,2165E-3,5C000400,-0724,0819,12326,029.1,045.5,0.254,750.8,01.17,0.508
2015-08-29 01:04:00,2274E-3,5C000400,-0724,0820,12245,029.2,045.5,0.254,750.7,01.17,0.508
2015-08-29 01:05:00,2249E-3,5C000400,-0724,0819,12416,029.2,045.5,0.254,750.7,01.17,0.508
2015-08-29 01:06:00,2226E-3,5C000400,-0724,0820,12314,029.2,045.5,0.255,750.5,01.17,0.508
2015-08-29 01:07:00,2264E-3,5C000400,-0724,0819,12215,029.2,045.5,0.254,750.7,01.17,0.508
2015-08-29 01:08:00,2214E-3,5C000400,-0724,0820,12340,029.2,045.5,0.254,750.4,01.17,0.508
2015-08-29 01:09:00,2241E-3,5C000400,-0724,0819,12374,029.3,045.5,0.254,750.6,01.17,0.508
2015-08-29 01:10:00,2262E-3,5C000400,-0724,0820,12353,029.3,045.5,0.254,750.6,01.17,0.508
2015-08-29 01:11:00,2184E-3,5C000400,-0724,0819,12056,029.3,045.5,0.254,750.5,01.17,0.508
2015-08-29 01:12:00,2165E-3,5C000400,-0724,0819,12188,029.3,045.5,0.254,750.5,01.17,0.508
2015-08-29 01:13:00,2146E-3,5C000400,-0724,0818,12161,029.3,045.5,0.254,750.7,01.17,0.508
2015-08-29 01:14:00,2183E-3,5C000400,-0724,0820,12376,029.3,045.5,0.254,750.7,01.17,0.508
2015-08-29 01:15:00,2187E-3,5C000400,-0724,0819,12429,029.3,045.5,0.254,750.6,01.17,0.508
2015-08-29 01:16:00,2179E-3,5C000400,-0724,0820,12400,029.3,045.5,0.254,750.6,01.17,0.508
2015-08-29 01:17:00,2271E-3,5C000400,-0724,0820,12187,029.3,045.5,0.254,750.6,01.17,0.508
2015-08-29 01:18:00,2232E-3,5C000400,-0724,0819,12123,029.3,045.5,0.254,750.4,01.17,0.508
2015-08-29 01:19:00,2358E-3,5C000400,-0724,0819,12225,029.3,045.5,0.254,750.6,01.17,0.508
2015-08-29 01:20:00,2142E-3,5C000400,-0724,0820,12292,029.3,045.5,0.254,750.6,01.17,0.508
2015-08-29 01:21:00,2307E-3,5C000400,-0724,0820,12281,029.3,045.5,0.254,750.5,01.17,0.508
2015-08-29 01:22:00,2270E-3,5C000400,-0724,0819,12334,029.3,045.5,0.254,750.6,01.17,0.508
2015-08-29 01:23:00,2184E-3,5C000400,-0724,0819,12230,029.3,045.5,0.254,750.7,01.17,0.508
2015-08-29 01:24:00,2253E-3,5C000400,-0724,0818,12295,029.3,045.5,0.254,750.4,01.17,0.508
2015-08-29 01:25:00,2236E-3,5C000400,-0724,0820,12350,029.4,045.5,0.254,750.3,01.17,0.508
2015-08-29 01:26:00,2322E-3,5C000400,-0724,0820,12351,029.4,045.5,0.255,750.7,01.17,0.508
2015-08-29 01:27:00,2242E-3,5C000400,-0724,0819,12116,029.3,045.5,0.254,750.5,01.17,0.508
2015-08-29 01:28:00,2254E-3,5C000400,-0724,0821,12246,029.4,045.5,0.254,750.6,01.17,0.508
2015-08-29 01:29:00,2292E-3,5C000400,-0724,0820,12198,029.4,045.5,0.254,750.5,01.17,0.508
2015-08-29 01:30:00,2182E-3,5C000400,-0724,0819,12271,029.4,045.5,0.254,750.5,01.17,0.508
2015-08-29 01:31:00,2217E-3,5C000400,-0724,0818,12353,029.4,045.5,0.254,750.5,01.17,0.508
2015-08-29 01:32:00,2290E-3,5C000400,-0724,0819,12280,029.4,045.5,0.254,750.7,01.17,0.508
2015-08-29 01:33:00,2333E-3,5C000400,-0724,0820,12312,029.4,045.5,0.254,750.6,01.17,0.508
2015-08-29 01:34:00,2228E-3,5C000400,-0724,0819,12292,029.4,045.5,0.254,750.7,01.17,0.508
2015-08-29 01:35:00,2186E-3,5C000400,-0724,0819,12270,029.4,045.5,0.254,750.4,01.17,0.508
2015-08-29 01:36:00,2187E-3,5C000400,-0724,0818,12173,029.4,045.5,0.254,750.6,01.17,0.508
2015-08-29 01:37:00,2204E-3,5C000400,-0724,0820,12402,029.4,045.5,0.254,750.6,01.17,0.508
2015-08-29 01:38:00,2263E-3,5C000400,-0724,0819,12404,029.4,045.5,0.254,750.7,01.17,0.508
2015-08-29 01:39:00,2236E-3,5C000400,-0724,0820,12227,029.4,045.5,0.254,750.6,01.17,0.508
2015-08-29 01:40:00,2257E-3,5C000400,-0724,0820,12292,029.4,045.5,0.254,750.5,01.17,0.508
2015-08-29 01:41:00,2169E-3,5C000400,-0724,0819,12374,029.4,045.5,0.254,750.5,01.17,0.508
2015-08-29 01:42:00,2256E-3,5C000400,-0724,0820,12247,029.4,045.5,0.253,750.4,01.17,0.508
2015-08-29 01:43:00,2267E-3,5C000400,-0724,0820,12263,029.4,045.5,0.254,750.4,01.17,0.508
2015-08-29 01:44:00,2334E-3,5C000400,-0724,0820,12341,029.4,045.5,0.253,750.5,01.17,0.508
2015-08-29 01:45:00,2228E-3,5C000400,-0724,0819,12362,029.5,045.5,0.254,750.4,01.17,0.508
2015-08-29 01:46:00,2251E-3,5C000400,-0724,0819,12272,029.5,045.5,0.254,750.5,01.17,0.508
2015-08-29 01:47:00,2341E-3,5C000400,-0724,0820,12247,029.5,045.5,0.254,750.4,01.17,0.508
2015-08-29 01:48:00,2156E-3,5C000400,-0724,0821,12193,029.5,045.5,0.254,750.4,01.17,0.508
2015-08-29 01:49:00,2228E-3,5C000400,-0724,0819,12247,029.5,045.5,0.254,750.5,01.17,0.508
2015-08-29 01:50:00,2252E-3,5C000400,-0724,0819,12097,029.5,045.5,0.254,750.3,01.17,0.508
2015-08-29 01:51:00,2184E-3,5C000400,-0724,0819,12418,029.5,045.5,0.254,750.6,01.17,0.508
2015-08-29 01:52:00,2212E-3,5C000400,-0724,0820,12393,029.5,045.5,0.254,750.4,01.17,0.508
2015-08-29 01:53:00,2268E-3,5C000400,-0724,0819,12345,029.5,045.5,0.254,750.4,01.17,0.508
2015-08-29 01:54:00,2256E-3,5C000400,-0724,0819,12335,029.5,045.5,0.254,750.5,01.17,0.508
2015-08-29 01:55:00,2270E-3,5C000400,-0724,0819,12250,029.5,045.5,0.254,750.2,01.17,0.508
2015-08-29 01:56:00,2274E-3,5C000400,-0724,0819,12434,029.6,045.5,0.254,750.4,01.17,0.508
2015-08-29 01:57:00,2148E-3,5C000400,-0724,0819,12147,029.6,045.5,0.253,750.4,01.17,0.508
2015-08-29 01:58:00,2183E-3,5C000400,-0724,0820,12272,029.6,045.5,0.254,750.3,01.17,0.508
2015-08-29 01:59:00,2178E-3,5C000400,-0724,0819,12321,029.6,045.5,0.253,750.4,01.17,0.508
2015-08-29 02:00:00,2193E-3,5C000400,-0724,0820,12327,029.6,045.5,0.254,750.4,01.17,0.508
2015-08-29 02:01:00,2264E-3,5C000400,-0724,0820,12271,029.6,045.5,0.253,750.4,01.17,0.508
2015-08-29 02:02:00,2346E-3,5C000400,-0724,0819,12266,029.6,045.5,0.254,750.4,01.17,0.508
2015-08-29 02:03:00,2257E-3,5C000400,-0724,0819,12249,029.6,045.5,0.253,750.4,01.17,0.508
2015-08-29 02:04:00,2167E-3,5C000400,-0724,0820,12225,029.7,045.5,0.254,750.3,01.17,0.508
2015-08-29 02:05:00,2308E-3,5C000400,-0724,0819,12183,029.7,045.5,0.253,750.3,01.17,0.508
2015-08-29 02:06:00,2212E-3,5C000400,-0724,0820,12348,029.7,045.5,0.254,750.2,01.17,0.508
2015-08-29 02:07:00,2083E-3,5C000400,-0724,0820,12208,029.7,045.5,0.253,750.4,01.17,0.508
2015-08-29 02:08:00,2343E-3,5C000400,-0724,0820,12297,029.7,045.5,0.253,750.2,01.17,0.508
2015-08-29 02:09:00,2276E-3,5C000400,-0724,0820,12380,029.7,045.5,0.253,750.4,01.17,0.508
2015-08-29 02:10:00,2271E-3,5C000400,-0724,0820,12175,029.7,045.5,0.253,750.2,01.17,0.508
2015-08-29 02:11:00,2258E-3,5C000400,-0724,0820,12170,029.8,045.5,0.254,750.3,01.17,0.508
2015-08-29 02:12:00,2317E-3,5C000400,-0724,0819,12307,029.7,045.5,0.253,750.4,01.17,0.508
2015-08-29 02:13:00,2310E-3,5C000400,-0724,0821,12385,029.8,045.5,0.253,750.4,01.17,0.508
2015-08-29 02:14:00,2162E-3,5C000400,-0724,0819,12187,029.8,045.5,0.253,750.4,01.17,0.508
2015-08-29 02:15:00,2237E-3,5C000400,-0724,0821,12250,029.8,045.5,0.253,750.3,01.17,0.508
2015-08-29 02:16:00,2206E-3,5C000400,-0724,0820,12148,029.8,045.5,0.253,750.4,01.17,0.508
2015-08-29 02:17:00,2280E-3,5C000400,-0724,0820,12235,029.8,045.5,0.253,750.6,01.17,0.508
2015-08-29 02:18:00,2227E-3,5C000400,-0724,0820,12195,029.8,045.5,0.253,750.5,01.17,0.508
2015-08-29 02:19:00,2195E-3,5C000400,-0724,0820,12287,029.8,045.5,0.253,750.4,01.17,0.508
2015-08-29 02:20:00,2069E-3,5C000400,-0724,0820,12184,029.8,045.5,0.253,750.4,01.17,0.508
2015-08-29 02:21:00,2108E-3,5C000400,-0724,0821,12317,029.8,045.5,0.254,750.4,01.17,0.508
2015-08-29 02:22:00,2354E-3,5C000400,-0724,0820,12275,029.8,045.5,0.253,750.4,01.17,0.508
2015-08-29 02:23:00,2190E-3,5C000400,-0724,0820,12520,029.8,045.5,0.253,750.4,01.17,0.508
2015-08-29 02:24:00,2207E-3,5C000400,-0724,0821,12344,029.9,045.5,0.254,750.2,01.17,0.508
2015-08-29 02:25:00,2227E-3,5C000400,-0724,0821,12282,029.9,045.5,0.253,750.3,01.17,0.508
2015-08-29 02:26:00,2265E-3,5C000400,-0724,0820,12232,029.9,045.5,0.253,750.1,01.17,0.508
2015-08-29 02:27:00,2293E-3,5C000400,-0724,0820,12381,029.9,045.5,0.253,750.3,01.17,0.508
2015-08-29 02:28:00,2219E-3,5C000400,-0724,0819,12269,029.9,045.5,0.253,750.4,01.17,0.508
2015-08-29 02:29:00,2189E-3,5C000400,-0724,0820,12245,029.9,045.5,0.253,750.1,01.17,0.508
2015-08-29 02:30:00,2109E-3,5C000400,-0724,0820,12313,029.9,045.5,0.253,750.4,01.17,0.508
2015-08-29 02:31:00,2126E-3,5C000400,-0724,0820,12432,029.9,045.5,0.253,750.2,01.17,0.508
2015-08-29 02:32:00,2177E-3,5C000400,-0724,0820,12167,030.0,045.5,0.253,750.2,01.17,0.508
2015-08-29 02:33:00,2166E-3,5C000400,-0724,0820,12187,030.0,045.5,0.253,750.1,01.17,0.508
2015-08-29 02:34:00,2136E-3,5C000400,-0724,0819,12307,030.0,045.5,0.253,750.1,01.17,0.508
2015-08-29 02:35:00,2331E-3,5C000400,-0724,0818,12258,030.0,045.5,0.253,750.2,01.17,0.508
2015-08-29 02:36:00,2192E-3,5C000400,-0724,0820,12435,030.0,045.5,0.252,750.3,01.17,0.508
2015-08-29 02:37:00,2218E-3,5C000400,-0724,0819,12190,030.0,045.5,0.253,750.3,01.17,0.508
2015-08-29 02:38:00,2220E-3,5C000400,-0724,0820,12455,030.0,045.5,0.253,750.2,01.17,0.508
2015-08-29 02:39:00,2302E-3,5C000400,-0724,0820,12298,030.0,045.5,0.253,750.4,01.17,0.508
2015-08-29 02:40:00,2231E-3,5C000400,-0724,0820,12229,030.0,045.5,0.253,750.3,01.17,0.508
2015-08-29 02:41:00,2210E-3,5C000400,-0724,0820,12234,030.0,045.5,0.253,750.3,01.17,0.508
2015-08-29 02:42:00,2145E-3,5C000400,-0724,0819,12358,030.0,045.5,0.253,750.3,01.17,0.508
2015-08-29 02:43:00,2201E-3,5C000400,-0724,0819,12119,030.1,045.5,0.252,750.3,01.17,0.508
2015-08-29 02:44:00,2185E-3,5C000400,-0724,0820,12348,030.1,045.5,0.253,750.4,01.17,0.508
2015-08-29 02:45:00,2139E-3,5C000400,-0724,0820,12410,030.1,045.5,0.253,750.3,01.17,0.508
2015-08-29 02:46:00,2311E-3,5C000400,-0724,0821,12390,030.0,045.5,0.253,750.4,01.17,0.508
2015-08-29 02:47:00,2221E-3,5C000400,-0724,0820,12333,030.1,045.5,0.252,750.4,01.17,0.508
2015-08-29 02:48:00,2264E-3,5C000400,-0724,0821,12304,030.1,045.5,0.253,750.1,01.17,0.508
2015-08-29 02:49:00,2142E-3,5C000400,-0724,0820,12309,030.1,045.5,0.253,750.4,01.17,0.508
2015-08-29 02:50:00,2217E-3,5C000400,-0724,0820,12274,030.1,045.5,0.253,750.4,01.17,0.508
2015-08-29 02:51:00,2259E-3,5C000400,-0724,0821,12214,030.1,045.5,0.252,750.2,01.17,0.508
2015-08-29 02:52:00,2302E-3,5C000400,-0724,0820,12279,030.1,045.5,0.253,750.4,01.17,0.508
2015-08-29 02:53:00,2318E-3,5C000400,-0724,0820,12364,030.1,045.5,0.253,750.5,01.17,0.508
2015-08-29 02:54:00,2089E-3,5C000400,-0724,0821,12426,030.1,045.5,0.252,750.3,01.17,0.508
2015-08-29 02:55:00,2266E-3,5C000400,-0724,0819,12137,030.1,045.5,0.253,750.4,01.17,0.508
2015-08-29 02:56:00,2359E-3,5C000400,-0724,0820,12356,030.1,045.5,0.253,750.3,01.17,0.508
2015-08-29 02:57:00,2112E-3,5C000400,-0724,0820,12244,030.1,045.5,0.252,750.3,01.17,0.508
2015-08-29 02:58:00,2300E-3,5C000400,-0724,0820,12277,030.1,045.5,0.252,750.4,01.17,0.508
2015-08-29 02:59:00,2233E-3,5C000400,-0724,0820,12298,030.1,045.5,0.253,750.3,01.17,0.508
2015-08-29 03:00:00,2089E-3,5C000400,-0724,0820,12249,030.2,045.5,0.252,750.4,01.17,0.508
2015-08-29 03:01:00,2277E-3,5C000400,-0724,0820,12147,030.2,045.5,0.252,750.3,01.17,0.508
2015-08-29 03:02:00,2328E-3,5C000400,-0724,0820,12313,030.2,045.5,0.253,750.3,01.17,0.508
2015-08-29 03:03:00,2465E-3,5C000400,-0724,0820,12479,030.2,045.5,0.253,750.3,01.17,0.508
2015-08-29 03:04:00,2245E-3,5C000400,-0724,0821,12259,030.2,045.5,0.252,750.3,01.17,0.508
2015-08-29 03:05:00,2226E-3,5C000400,-0724,0820,12252,030.2,045.5,0.252,750.1,01.17,0.508
2015-08-29 03:06:00,2179E-3,5C000400,-0724,0819,12238,030.2,045.5,0.252,750.3,01.17,0.508
2015-08-29 03:07:00,2286E-3,5C000400,-0724,0820,12217,030.2,045.5,0.252,750.3,01.17,0.508
2015-08-29 03:08:00,2222E-3,5C000400,-0724,0819,12318,030.2,045.5,0.252,750.3,01.17,0.508
2015-08-29 03:09:00,2217E-3,5C000400,-0724,0820,12135,030.2,045.5,0.252,750.3,01.17,0.508
2015-08-29 03:10:00,2259E-3,5C000400,-0724,0820,12224,030.2,045.5,0.252,750.2,01.17,0.508
2015-08-29 03:11:00,2394E-3,5C000400,-0724,0819,12477,030.2,045.5,0.252,750.2,01.17,0.508
2015-08-29 03:12:00,2204E-3,5C000400,-0724,0820,12373,030.2,045.5,0.253,750.3,01.17,0.508
2015-08-29 03:13:00,2314E-3,5C000400,-0724,0821,12369,030.2,045.5,0.252,750.4,01.17,0.508
2015-08-29 03:14:00,2256E-3,5C000400,-0724,0820,12297,030.2,045.5,0.252,750.3,01.17,0.508
2015-08-29 03:15:00,2073E-3,5C000400,-0724,0821,12450,030.3,045.5,0.252,750.2,01.17,0.508
2015-08-29 03:16:00,2315E-3,5C000400,-0724,0820,12236,030.3,045.5,0.252,750.1,01.17,0.508
2015-08-29 03:17:00,2203E-3,5C000400,-0724,0821,12066,030.3,045.5,0.252,750.3,01.17,0.508
2015-08-29 03:18:00,2317E-3,5C000400,-0724,0821,12227,030.3,045.5,0.252,750.3,01.17,0.508
2015-08-29 03:19:00,2245E-3,5C000400,-0724,0821,12287,030.3,045.5,0.252,750.2,01.17,0.508
2015-08-29 03:20:00,2211E-3,5C000400,-0724,0821,12303,030.3,045.5,0.252,750.0,01.17,0.508
2015-08-29 03:21:00,2235E-3,5C000400,-0724,0821,12125,030.3,045.5,0.252,750.3,01.17,0.508
2015-08-29 03:22:00,2203E-3,5C000400,-0724,0821,12234,030.3,045.5,0.252,750.3,01.17,0.508
2015-08-29 03:23:00,2167E-3,5C000400,-0724,0819,12355,030.3,045.5,0.252,750.1,01.17,0.508
2015-08-29 03:24:00,2329E-3,5C000400,-0724,0821,12218,030.3,045.5,0.253,750.0,01.17,0.508
2015-08-29 03:25:00,2312E-3,5C000400,-0724,0820,12234,030.3,045.5,0.253,750.2,01.17,0.508
2015-08-29 03:26:00,2143E-3,5C000400,-0724,0820,12246,030.3,045.5,0.252,750.2,01.17,0.508
2015-08-29 03:27:00,2413E-3,5C000400,-0724,0820,12393,030.3,045.5,0.252,750.2,01.17,0.508
2015-08-29 03:28:00,2090E-3,5C000400,-0724,0821,12374,030.3,045.5,0.252,750.1,01.17,0.508
2015-08-29 03:29:00,2237E-3,5C000400,-0724,0822,12284,030.3,045.5,0.252,750.3,01.17,0.508
2015-08-29 03:30:00,2098E-3,5C000400,-0724,0820,12240,030.4,045.5,0.252,750.3,01.17,0.508
2015-08-29 03:31:00,2229E-3,5C000400,-0724,0821,12357,030.3,045.5,0.252,750.0,01.17,0.508
2015-08-29 03:32:00,2283E-3,5C000400,-0724,0821,12271,030.4,045.5,0.252,750.2,01.17,0.508
2015-08-29 03:33:00,2313E-3,5C000400,-0724,0820,12218,030.4,045.5,0.252,750.2,01.17,0.508
2015-08-29 03:34:00,2177E-3,5C000400,-0724,0821,12177,030.4,045.5,0.252,750.2,01.17,0.508
2015-08-29 03:35:00,2275E-3,5C000400,-0724,0820,12410,030.4,045.5,0.252,750.1,01.17,0.508
2015-08-29 03:36:00,2342E-3,5C000400,-0724,0821,12185,030.4,045.5,0.252,750.2,01.17,0.508
2015-08-29 03:37:00,2290E-3,5C000400,-0724,0820,12408,030.4,045.5,0.252,750.3,01.17,0.508
2015-08-29 03:38:00,2256E-3,5C000400,-0724,0820,12309,030.4,045.5,0.252,750.1,01.17,0.508
2015-08-29 03:39:00,2235E-3,5C000400,-0724,0820,12221,030.4,045.5,0.252,750.1,01.17,0.508
2015-08-29 03:40:00,2150E-3,5C000400,-0724,0822,12288,030.4,045.5,0.252,750.2,01.17,0.508
2015-08-29 03:41:00,2174E-3,5C000400,-0724,0821,12308,030.4,045.5,0.252,750.2,01.17,0.508
2015-08-29 03:42:00,2184E-3,5C000400,-0724,0821,12328,030.4,045.5,0.252,750.1,01.17,0.508
2015-08-29 03:43:00,2117E-3,5C000400,-0724,0821,12280,030.4,045.5,0.252,750.3,01.17,0.508
2015-08-29 03:44:00,2322E-3,5C000400,-0724,0820,12301,030.4,045.5,0.252,750.1,01.17,0.508
2015-08-29 03:45:00,2321E-3,5C000400,-0724,0821,12340,030.4,045.5,0.252,750.2,01.17,0.508
2015-08-29 03:46:00,2265E-3,5C000400,-0724,0821,12240,030.4,045.5,0.252,750.2,01.17,0.508
2015-08-29 03:47:00,2282E-3,5C000400,-0724,0821,12194,030.5,045.5,0.252,750.4,01.17,0.508
2015-08-29 03:48:00,2240E-3,5C000400,-0724,0820,12238,030.5,045.5,0.252,750.2,01.17,0.508
2015-08-29 03:49:00,2174E-3,5C000400,-0724,0821,12068,030.4,045.5,0.252,750.2,01.17,0.508
2015-08-29 03:50:00,2187E-3,5C000400,-0724,0821,12348,030.5,045.5,0.252,750.2,01.17,0.508
2015-08-29 03:51:00,2241E-3,5C000400,-0724,0821,12155,030.5,045.5,0.252,750.2,01.17,0.508
2015-08-29 03:52:00,2232E-3,5C000400,-0724,0821,12230,030.5,045.5,0.252,750.2,01.17,0.508
2015-08-29 03:53:00,2125E-3,5C000400,-0724,0820,12207,030.5,045.5,0.252,750.2,01.17,0.508
2015-08-29 03:54:00,2139E-3,5C000400,-0724,0821,12265,030.5,045.5,0.252,750.2,01.17,0.508
2015-08-29 03:55:00,2292E-3,5C000400,-0724,0821,12297,030.5,045.5,0.252,750.3,01.17,0.508
2015-08-29 03:56:00,2158E-3,5C000400,-0724,0821,12317,030.5,045.5,0.252,750.0,01.17,0.508
2015-08-29 03:57:00,2223E-3,5C000400,-0724,0821,12274,030.5,045.5,0.252,750.2,01.17,0.508
2015-08-29 03:58:00,2288E-3,5C000400,-0724,0820,12207,030.5,045.5,0.252,750.3,01.17,0.508
2015-08-29 03:59:00,2318E-3,5C000400,-0724,0821,12265,030.5,045.5,0.252,750.3,01.17,0.508
2015-08-29 04:00:00,2275E-3,5C000400,-0724,0821,12395,030.5,045.5,0.252,750.2,01.17,0.508
2015-08-29 04:01:00,2321E-3,5C000400,-0724,0821,12291,030.5,045.5,0.252,750.4,01.17,0.508
2015-08-29 04:02:00,2212E-3,5C000400,-0724,0821,12293,030.5,045.5,0.252,750.2,01.17,0.508
2015-08-29 04:03:00,2305E-3,5C000400,-0724,0820,12331,030.5,045.5,0.252,750.3,01.17,0.508
2015-08-29 04:04:00,2261E-3,5C000400,-0724,0821,12246,030.5,045.5,0.252,750.1,01.17,0.508
2015-08-29 04:05:00,2327E-3,5C000400,-0724,0820,12206,030.6,045.6,0.252,750.3,01.17,0.508
2015-08-29 04:06:00,2269E-3,5C000400,-0724,0821,12243,030.5,045.6,0.252,750.2,01.17,0.508
2015-08-29 04:07:00,2244E-3,5C000400,-0724,0821,12128,030.6,045.6,0.252,750.4,01.17,0.508
2015-08-29 04:08:00,2248E-3,5C000400,-0724,0820,12209,030.6,045.5,0.252,750.2,01.17,0.508
2015-08-29 04:09:00,2275E-3,5C000400,-0724,0820,12204,030.6,045.5,0.252,750.1,01.17,0.508
2015-08-29 04:10:00,2420E-3,5C000400,-0724,0821,12429,030.6,045.5,0.252,750.2,01.17,0.508
2015-08-29 04:11:00,2242E-3,5C000400,-0724,0821,12270,030.6,045.5,0.251,750.2,01.17,0.508
2015-08-29 04:12:00,2424E-3,5C000400,-0724,0822,12411,030.6,045.5,0.252,750.2,01.17,0.508
2015-08-29 04:13:00,2399E-3,5C000400,-0724,0821,12258,030.6,045.6,0.252,750.3,01.17,0.508
2015-08-29 04:14:00,2251E-3,5C000400,-0724,0821,12317,030.6,045.5,0.251,750.2,01.17,0.508
2015-08-29 04:15:00,2221E-3,5C000400,-0724,0820,12311,030.6,045.5,0.252,750.2,01.17,0.508
2015-08-29 04:16:00,2317E-3,5C000400,-0724,0821,12086,030.6,045.5,0.252,750.1,01.17,0.508
2015-08-29 04:17:00,2165E-3,5C000400,-0724,0821,12194,030.6,045.5,0.251,750.1,01.17,0.508
2015-08-29 04:18:00,2331E-3,5C000400,-0724,0821,12471,030.6,045.5,0.252,750.1,01.17,0.508
2015-08-29 04:19:00,2160E-3,5C000400,-0724,0822,12201,030.6,045.5,0.252,750.3,01.17,0.508
2015-08-29 04:20:00,2188E-3,5C000400,-0724,0821,12339,030.6,045.5,0.251,750.2,01.17,0.508